User: anonymous
Location: Unspecified
(0.0000°N, 0.0000°E)
Time: 23:03:46
(UTC+02:00)
Language:

Meteor PRIRODA - Orbit

View from above orbital plane
View from above orbital plane
View from above satellite
View from above satellite

Ground track
Ground track

The orbit data is extracted from the following two-line orbital elements,

1 12585U 81065A   14243.46335475  .00002764  00000-0  15296-3 0  8772
2 12585 097.3243 232.0946 0016891 010.9878 140.1107 15.14542229807380
Epoch (UTC): 31 August 2014 11:07:13
Eccentricity: 0.0016891
inclination: 97.3243°
perigee height: 511 km
apogee height: 534 km
right ascension of ascending node: 232.0946°
argument of perigee: 10.9878°
revolutions per day: 15.14542229
mean anomaly at epoch: 140.1107°
orbit number at epoch: 80738

The dashed part of the orbit path shows where the satellite is in the earth's shadow,  

DLR